| time (UTC) | temp C | wind direction | speed KPH | gust KPH | rain 1hr cm | rain 24hr cm | rain mn cm | humidity % | barometer mb |
| 20260508171504 | 4 | 205 | 3.2 | 8.0 | 0.00 | 1.93 | 0.03 | 97 | 1002.3 |
| 20260508164559 | 4 | 205 | 8.0 | 12.9 | 0.00 | 1.93 | 0.03 | 97 | 1002.4 |
| 20260508163057 | 4 | 316 | 9.7 | 16.1 | 0.00 | 1.93 | 0.03 | 97 | 1002.2 |
| 20260508161556 | 4 | 303 | 4.8 | 12.9 | 0.00 | 1.93 | 0.03 | 97 | 1001.9 |
| 20260508160101 | 5 | 205 | 9.7 | 16.1 | 0.00 | 1.93 | 0.03 | 97 | 1001.8 |
| 20260508154555 | 4 | 205 | 9.7 | 16.1 | 0.00 | 1.93 | 0.03 | 98 | 1001.9 |
| 20260508153055 | 4 | 205 | 9.7 | 14.5 | 0.00 | 1.93 | 0.03 | 97 | 1001.8 |
| 20260508151554 | 4 | 205 | 4.8 | 12.9 | 0.00 | 1.93 | 0.03 | 98 | 1001.8 |
| 20260508150121 | 4 | 205 | 9.7 | 16.1 | 0.00 | 1.93 | 0.03 | 97 | 1002.1 |
| 20260508144601 | 5 | 296 | 11.3 | 17.7 | 0.00 | 1.93 | 0.03 | 97 | 1002.1 |
| 20260508143053 | 5 | 299 | 6.4 | 9.7 | 0.00 | 1.93 | 0.03 | 98 | 1002.1 |
| 20260508141600 | 5 | 336 | 4.8 | 12.9 | 0.00 | 1.93 | 0.03 | 97 | 1002.2 |
| 20260508140057 | 5 | 299 | 8.0 | 12.9 | 0.00 | 1.93 | 0.03 | 97 | 1002.6 |
| 20260508134550 | 5 | 205 | 6.4 | 9.7 | 0.00 | 1.93 | 0.03 | 97 | 1002.7 |
| 20260508133047 | 5 | 205 | 6.4 | 12.9 | 0.00 | 1.93 | 0.03 | 97 | 1002.5 |
| 20260508131550 | 5 | 205 | 3.2 | 8.0 | 0.00 | 1.93 | 0.03 | 98 | 1002.3 |
| 20260508130046 | 5 | 300 | 6.4 | 12.9 | 0.00 | 1.93 | 0.03 | 97 | 1002.1 |
| 20260508124545 | 5 | 308 | 8.0 | 12.9 | 0.00 | 1.93 | 0.03 | 97 | 1001.8 |
| 20260508123045 | 7 | 322 | 4.8 | 8.0 | 0.00 | 1.93 | 0.03 | 98 | 1001.9 |
| 20260508121547 | 6 | 205 | 1.6 | 6.4 | 0.00 | 1.93 | 0.03 | 98 | 1002.2 |
| 20260508120044 | 6 | 205 | 4.8 | 9.7 | 0.00 | 1.93 | 0.03 | 98 | 1002.2 |
| 20260508114543 | 5 | 205 | 1.6 | 6.4 | 0.00 | 1.93 | 0.03 | 97 | 1002.1 |
| 20260508113108 | 5 | 205 | 3.2 | 6.4 | 0.00 | 1.93 | 0.03 | 97 | 1002.3 |
| 20260508111542 | 5 | 342 | 4.8 | 8.0 | 0.00 | 1.93 | 0.03 | 97 | 1002.2 |
| 20260508110043 | 6 | 205 | 1.6 | 3.2 | 0.00 | 1.93 | 0.03 | 98 | 1002.5 |
| 20260508104553 | 5 | 205 | 0.0 | 0.0 | 0.00 | 1.93 | 0.03 | 98 | 1002.6 |
| 20260508103041 | 5 | 205 | 0.0 | 0.0 | 0.00 | 1.93 | 0.03 | 98 | 1002.6 |
| 20260508101543 | 5 | 205 | 0.0 | 0.0 | 0.00 | 1.93 | 0.03 | 98 | 1002.5 |
| 20260508100040 | 4 | 205 | 0.0 | 0.0 | 0.00 | 1.93 | 0.03 | 97 | 1002.3 |
| 20260508094537 | 4 | 205 | 0.0 | 4.8 | 0.00 | 1.93 | 0.03 | 97 | 1002.2 |
| 20260508093036 | 3 | 344 | 3.2 | 6.4 | 0.00 | 1.93 | 0.03 | 97 | 1002.2 |
| 20260508091534 | 4 | 344 | 1.6 | 6.4 | 0.00 | 1.93 | 0.03 | 96 | 1002.1 |
| 20260508090042 | 4 | 344 | 0.0 | 0.0 | 0.00 | 1.93 | 0.03 | 97 | 1002.0 |
| 20260508084530 | 5 | 344 | 3.2 | 6.4 | 0.00 | 1.93 | 0.03 | 96 | 1001.6 |
| 20260508083036 | 5 | 205 | 0.0 | 0.0 | 0.00 | 1.93 | 0.03 | 97 | 1001.5 |
| 20260508081527 | 5 | 205 | 0.0 | 0.0 | 0.00 | 1.93 | 0.03 | 97 | 1001.1 |
| 20260508080031 | 5 | 205 | 0.0 | 4.8 | 0.03 | 1.93 | 0.03 | 97 | 1001.5 |
| 20260508074524 | 5 | 205 | 3.2 | 6.4 | 0.03 | 1.93 | 0.03 | 97 | 1001.4 |
| 20260508073022 | 5 | 205 | 0.0 | 0.0 | 0.03 | 1.93 | 0.03 | 97 | 1001.5 |
| 20260508071524 | 5 | 205 | 0.0 | 0.0 | 0.03 | 1.93 | 0.03 | 96 | 1001.6 |
| 20260508070022 | 5 | 39 | 0.0 | 0.0 | 0.00 | 1.93 | 0.00 | 96 | 1001.7 |
| 20260508064546 | 6 | 205 | 0.0 | 0.0 | 0.00 | 1.93 | 0.00 | 96 | 1001.6 |
| 20260508063026 | 6 | 205 | 0.0 | 4.8 | 0.00 | 1.93 | 0.00 | 97 | 1001.4 |
| 20260508061519 | 6 | 205 | 3.2 | 6.4 | 0.00 | 1.93 | 0.00 | 97 | 1001.4 |
| 20260508060019 | 6 | 205 | 0.0 | 6.4 | 0.00 | 1.93 | 0.00 | 97 | 1001.3 |
| 20260508054526 | 6 | 205 | 0.0 | 4.8 | 0.00 | 1.93 | 0.00 | 96 | 1001.8 |
| 20260508053015 | 6 | 25 | 0.0 | 4.8 | 0.00 | 1.93 | 0.00 | 96 | 1002.0 |
| 20260508051523 | 6 | 205 | 1.6 | 4.8 | 0.00 | 1.93 | 0.00 | 96 | 1002.0 |
| 20260508050030 | 6 | 205 | 6.4 | 8.0 | 0.00 | 1.93 | 0.00 | 96 | 1001.8 |
| 20260508044512 | 6 | 350 | 1.6 | 3.2 | 0.00 | 1.93 | 0.00 | 96 | 1001.6 |
| 20260508043013 | 5 | 205 | 0.0 | 3.2 | 0.00 | 1.93 | 0.00 | 96 | 1001.7 |
| 20260508041509 | 6 | 205 | 4.8 | 12.9 | 0.00 | 1.93 | 0.00 | 96 | 1002.0 |
| 20260508040008 | 5 | 56 | 0.0 | 6.4 | 0.00 | 1.93 | 0.00 | 96 | 1002.0 |
| 20260508034519 | 5 | 205 | 3.2 | 12.9 | 0.00 | 1.93 | 0.00 | 95 | 1002.0 |
| 20260508033004 | 7 | 205 | 8.0 | 14.5 | 0.00 | 1.93 | 0.00 | 95 | 1002.1 |
| 20260508031607 | 8 | 62 | 0.0 | 0.0 | 0.00 | 1.93 | 0.00 | 96 | 1001.9 |
| 20260508030105 | 8 | 62 | 0.0 | 0.0 | 0.00 | 1.93 | 0.00 | 96 | 1001.9 |
| 20260508024556 | 8 | 205 | 1.6 | 8.0 | 0.00 | 1.93 | 1.93 | 96 | 1001.9 |
| 20260508023056 | 8 | 30 | 1.6 | 4.8 | 0.03 | 1.93 | 1.93 | 95 | 1001.8 |
| 20260508021603 | 8 | 205 | 0.0 | 4.8 | 0.05 | 1.93 | 1.93 | 96 | 1002.2 |
| 20260508020054 | 7 | 205 | 0.0 | 4.8 | 0.05 | 1.93 | 1.93 | 95 | 1002.3 |
| 20260508014553 | 7 | 205 | 0.0 | 4.8 | 0.08 | 1.93 | 1.93 | 95 | 1002.5 |
| 20260508013051 | 7 | 205 | 0.0 | 8.0 | 0.10 | 1.91 | 1.91 | 95 | 1002.6 |
| 20260508011555 | 8 | 205 | 0.0 | 4.8 | 0.15 | 1.88 | 1.88 | 95 | 1002.6 |
| 20260508010050 | 8 | 205 | 0.0 | 1.6 | 0.20 | 1.85 | 1.85 | 95 | 1002.5 |
| 20260508004550 | 8 | 205 | 0.0 | 0.0 | 0.28 | 1.83 | 1.83 | 94 | 1002.5 |
| 20260508003048 | 7 | 205 | 1.6 | 4.8 | 0.33 | 1.80 | 1.80 | 94 | 1002.5 |
| 20260508001547 | 8 | 205 | 4.8 | 9.7 | 0.28 | 1.75 | 1.75 | 94 | 1002.5 |
| 20260507234548 | 7 | 205 | 8.0 | 17.7 | 0.10 | 1.55 | 1.55 | 92 | 1002.2 |
| 20260507233041 | 10 | 205 | 6.4 | 16.1 | 0.03 | 1.45 | 1.45 | 92 | 1001.8 |
| 20260507231544 | 10 | 205 | 9.7 | 29.0 | 0.00 | 1.42 | 1.42 | 91 | 1001.6 |
| 20260507230035 | 13 | 205 | 14.5 | 29.0 | 0.00 | 1.42 | 1.42 | 88 | 1001.2 |
| 20260507224534 | 12 | 205 | 12.9 | 20.9 | 0.00 | 1.42 | 1.42 | 90 | 1000.6 |
| 20260507223034 | 12 | 205 | 12.9 | 24.1 | 0.00 | 1.42 | 1.42 | 89 | 1000.7 |
| 20260507221533 | 12 | 205 | 14.5 | 27.4 | 0.00 | 1.42 | 1.42 | 89 | 1000.7 |
| 20260507220032 | 12 | 205 | 17.7 | 30.6 | 0.00 | 1.42 | 1.42 | 89 | 1000.5 |
| 20260507214532 | 12 | 205 | 12.9 | 27.4 | 0.00 | 1.42 | 1.42 | 89 | 1000.5 |
| 20260507213038 | 12 | 205 | 19.3 | 33.8 | 0.00 | 1.42 | 1.42 | 90 | 1000.2 |
| 20260507211541 | 12 | 205 | 27.4 | 46.7 | 0.00 | 1.42 | 1.42 | 91 | 1000.2 |
| 20260507210029 | 12 | 205 | 24.1 | 38.6 | 0.03 | 1.42 | 1.42 | 91 | 1000.4 |
| 20260507204528 | 12 | 205 | 24.1 | 45.1 | 0.05 | 1.42 | 1.42 | 91 | 1000.4 |
| 20260507203026 | 12 | 205 | 24.1 | 38.6 | 0.20 | 1.42 | 1.42 | 92 | 1000.4 |
| 20260507201527 | 12 | 205 | 24.1 | 38.6 | 0.33 | 1.42 | 1.42 | 93 | 999.9 |
| 20260507200025 | 12 | 205 | 25.7 | 41.8 | 0.36 | 1.42 | 1.42 | 94 | 999.7 |
| 20260507194522 | 11 | 205 | 29.0 | 40.2 | 0.38 | 1.40 | 1.40 | 93 | 1000.5 |
| 20260507193021 | 11 | 205 | 27.4 | 41.8 | 0.36 | 1.27 | 1.27 | 93 | 1001.2 |
| 20260507191513 | 12 | 205 | 19.3 | 30.6 | 0.33 | 1.12 | 1.12 | 93 | 1002.6 |
| 20260507190016 | 12 | 205 | 20.9 | 32.2 | 0.43 | 1.09 | 1.09 | 93 | 1002.3 |
| 20260507184511 | 12 | 205 | 24.1 | 35.4 | 0.64 | 0.99 | 0.99 | 92 | 1002.7 |
| 20260507183011 | 12 | 205 | 25.7 | 37.0 | 0.86 | 0.89 | 0.89 | 93 | 1002.9 |
| 20260507181508 | 12 | 205 | 24.1 | 37.0 | 0.79 | 0.79 | 0.79 | 93 | 1003.3 |
| 20260507180006 | 12 | 205 | 20.9 | 32.2 | 0.64 | 0.64 | 0.64 | 92 | 1003.7 |
| 20260507174513 | 12 | 205 | 19.3 | 37.0 | 0.36 | 0.36 | 0.36 | 91 | 1004.0 |
| 20260507173101 | 13 | 205 | 29.0 | 43.5 | 0.05 | 0.05 | 0.05 | 89 | 1003.2 |